"Pseudo-MPEC" for P11Vnoi

Created 2024 Jun 12 14:22:07 UT using Find_Orb

Click here for an explanation of pseudo-MPECs

 
 Astrometry: 
     P11Vnoi* C2024 06 09uu_LjeOEa@x9;Oe2*6=j,nAstrometryl`6B^xZs$`OnK$n2v4e6F51
     P11Vnoi  C2024 06 09):U;DE3h,[4lqWPoOdBSJqvPpb^MhAL]?qp-#QBIHredacted;STF51
     P11Vnoi  C2024 06 09q(m\C?^?I.[Ol/F4PrrJCBclickWhere!tS$v,XH5Q;Kt4cm]qN3F51
     P11Vnoi KC2024 06 10=]YRh+$8NI)N#.%/fMxqBIk1f^n]3[UJnaly?^(?.1n1?st`sWvvH21
     P11Vnoi KC2024 06 10#-caN]Uy,E+[*3!8yI#rBwXvpjrGm0T\0]sf6%\[eexs#QBJX(n(H21
     P11Vnoi KC2024 06 10.34966 20 23 54.63 -05 51 12.6    ~6A9b 21.2 RVNEOCP291
     P11Vnoi KC2024 06 10.35256 20 23 54.84 -05 51 13.8    ~6A9b 21.7 RVNEOCP291
     P11Vnoi KC2024 06 10.35544 20 23 55.13 -05 51 13.4    ~6A9b       VNEOCP291
     P11Vnoi KC2024 06 11rfO?F_N\J1VjG5L(DnSqK*9,T17YFcv)F5W)_h9)5NVq)T?\LE@?H21
     P11Vnoi KC2024 06 11Qu+o2doOdkXe[5ntforWa$Fi4rhexplanation].n(O43$?\6]ReH21
     P11Vnoi KC2024 06 11Hwx3X3[-Ev1k?y/8AG6OO$=SwyCZQc\);Ia(^HM4Y?T2(FTOFDYPH21
     P11Vnoi KC2024 06 12.42682 20 26 01.80 -05 54 38.3    ~6CBM       VNEOCP291
     P11Vnoi KC2024 06 12.43546 20 26 02.27 -05 54 39.1    ~6CBM       VNEOCP291
     P11Vnoi KC2024 06 12.44412 20 26 02.73 -05 54 40.4    ~6CBM       VNEOCP291

Station data:
(291) LPL/Spacewatch II  (N31.961669 W111.599905)  US/Arizona.  Observers J.
   V. Scotti, R. S. McMillan. 1.8-m f/2.7 reflector + CCD.
(F51) Pan-STARRS 1, Haleakala  (N20.707234 W156.255910)  US/Hawaii.
   Observers J. Bulger, T. Lowe, A. Schultz, M. Willman. Measurers K.
   Chambers, S. Chastel, T. de Boer, L. Denneau, J. Fairlamb, H. Flewelling,
   M. Huber, C.-C. Lin, E. Magnier, Y. Ramanjooloo, R. Wainscoat, R. Weryk.
   1.8-m Ritchey-Chrétien + CCD.
(H21) Astronomical Research Observatory, Westfield  (N39.483054 W87.968270)
   US/Illinois.  Observer R. Holmes. Measurers S. Foglia, L. Buzzi, T.
   Linder, R. Holmes. 0.76-m f/3.0 astrograph + CCD0.81-m f/4.0 astrograph +
   CCD0.61-m f/4.5 astrograph + CCD0.40-m f/5.32 astrograph + CCD.

Orbital elements:  P11Vnoi
   Perihelion 2024 Jun 15.62930 +/- 4 TT = 15:06:11 (JD 2460477.12930)
Epoch 2024 Jun 12.0 TT = JDT 2460473.5   Earth MOID: 0.4570      AutoNEOCP
M 358.85904899 +/- 1.3              (J2000 ecliptic)
n   0.31437192 +/- 0.0266           Peri.  144.90277 +/- 3.1
a   2.14210230 +/- 0.121            Node   134.30351 +/- 0.8
e   0.3166582 +/- 0.0315            Incl.    8.29395 +/- 0.09
P   3.14                   H 20.42  G  0.15   U 10.3
q 1.46378802 +/- 0.0154    Q 2.82041659 +/- 0.226
From 14 observations 2024 June 9-12; mean residual 0".46
Residuals in arcseconds: 
240609 F51  .16-  .15+    240610 291  .77-  .51+    240611 H21  .39+  .28-    
240609 F51  .23+  .21-    240610 291  .19-  .46-    240612 291  .11-  .11-    
240609 F51  .02-  .05-    240610 291  1.6+  .17+    240612 291  .02-  .16+    
240610 H21  .95-  .27+    240611 H21  .18+  .01-    240612 291  .09-  .08-    
240610 H21  .56-  .70+    240611 H21  .16+  .17-    

Ephemerides (geocentric):
Date (UTC) HH   RA             Dec           delta  r     elong  mag " sig PA
---- --------  ------------   ------------  ------ ------ -----  --- --------
2024 06 12 14  20 26 10.999   -05 54 48.36  .56938 1.4640 132.9 21.3 .078  69
2024 06 12 15  20 26 13.451   -05 54 53.68  .56920 1.4640 133.0 21.3 .079  91
2024 06 12 16  20 26 15.899   -05 54 59.03  .56901 1.4640 133.0 21.3 .091 111
2024 06 12 17  20 26 18.344   -05 55 04.43  .56883 1.4640 133.0 21.3 .111 125
2024 06 12 18  20 26 20.786   -05 55 09.87  .56865 1.4640 133.1 21.3 .136 134
2024 06 12 19  20 26 23.223   -05 55 15.35  .56847 1.4640 133.1 21.3 .164 141
2024 06 12 20  20 26 25.657   -05 55 20.87  .56828 1.4640 133.1 21.3 .195 146
2024 06 12 21  20 26 28.087   -05 55 26.44  .56810 1.4640 133.1 21.3 .227 149
2024 06 12 22  20 26 30.514   -05 55 32.05  .56792 1.4639 133.2 21.3 .261 152
2024 06 12 23  20 26 32.937   -05 55 37.70  .56774 1.4639 133.2 21.3 .296 154
2024 06 13 00  20 26 35.356   -05 55 43.39  .56755 1.4639 133.2 21.3 .332 156
2024 06 13 01  20 26 37.772   -05 55 49.12  .56737 1.4639 133.3 21.3 .369 157
2024 06 13 02  20 26 40.184   -05 55 54.90  .56719 1.4639 133.3 21.3 .407 159
2024 06 13 03  20 26 42.592   -05 56 00.72  .56701 1.4639 133.3 21.3 .446 160
2024 06 13 04  20 26 44.997   -05 56 06.58  .56683 1.4639 133.4 21.3 .485 161
2024 06 13 05  20 26 47.398   -05 56 12.49  .56664 1.4639 133.4 21.3 .526 161
2024 06 13 06  20 26 49.795   -05 56 18.43  .56646 1.4639 133.4 21.3 .568 162
2024 06 13 07  20 26 52.188   -05 56 24.42  .56628 1.4639 133.4 21.3 .610 163
2024 06 13 08  20 26 54.578   -05 56 30.45  .56610 1.4639 133.5 21.3 .654 163
2024 06 13 09  20 26 56.964   -05 56 36.53  .56592 1.4639 133.5 21.3 .698 164
2024 06 13 10  20 26 59.347   -05 56 42.65  .56574 1.4639 133.5 21.3 .743 164
2024 06 13 11  20 27 01.726   -05 56 48.81  .56556 1.4639 133.6 21.3 .790 165
2024 06 13 12  20 27 04.101   -05 56 55.01  .56538 1.4639 133.6 21.3 .836 165
2024 06 13 13  20 27 06.472   -05 57 01.25  .56520 1.4639 133.6 21.3 .884 166
2024 06 13 14  20 27 08.840   -05 57 07.54  .56502 1.4639 133.7 21.3 .933 166
2024 06 13 15  20 27 11.204   -05 57 13.87  .56484 1.4639 133.7 21.3 .983 166
2024 06 13 16  20 27 13.565   -05 57 20.24  .56466 1.4639 133.7 21.3 1.03 167
2024 06 13 17  20 27 15.921   -05 57 26.66  .56448 1.4639 133.7 21.3 1.08 167
2024 06 13 18  20 27 18.275   -05 57 33.12  .56430 1.4639 133.8 21.3 1.14 167
2024 06 13 19  20 27 20.624   -05 57 39.62  .56412 1.4639 133.8 21.3 1.19 167
2024 06 13 20  20 27 22.970   -05 57 46.16  .56394 1.4639 133.8 21.3 1.24 168
2024 06 13 21  20 27 25.312   -05 57 52.75  .56376 1.4639 133.9 21.3 1.30 168
2024 06 13 22  20 27 27.650   -05 57 59.38  .56358 1.4639 133.9 21.3 1.35 168
2024 06 13 23  20 27 29.984   -05 58 06.06  .56341 1.4638 133.9 21.3 1.41 168
2024 06 14 00  20 27 32.315   -05 58 12.77  .56323 1.4638 134.0 21.3 1.47 168
2024 06 14 01  20 27 34.642   -05 58 19.53  .56305 1.4638 134.0 21.3 1.53 169
2024 06 14 02  20 27 36.966   -05 58 26.34  .56287 1.4638 134.0 21.3 1.59 169
2024 06 14 03  20 27 39.286   -05 58 33.18  .56269 1.4638 134.0 21.3 1.65 169
2024 06 14 04  20 27 41.602   -05 58 40.07  .56252 1.4638 134.1 21.3 1.71 169
2024 06 14 05  20 27 43.914   -05 58 47.00  .56234 1.4638 134.1 21.3 1.77 169
2024 06 14 06  20 27 46.223   -05 58 53.98  .56216 1.4638 134.1 21.3 1.83 169
2024 06 14 07  20 27 48.528   -05 59 01.00  .56198 1.4638 134.2 21.3 1.90 170
2024 06 14 08  20 27 50.829   -05 59 08.06  .56181 1.4638 134.2 21.3 1.96 170
2024 06 14 09  20 27 53.127   -05 59 15.17  .56163 1.4638 134.2 21.3 2.03 170
2024 06 14 10  20 27 55.421   -05 59 22.32  .56145 1.4638 134.3 21.3 2.09 170
2024 06 14 11  20 27 57.711   -05 59 29.51  .56128 1.4638 134.3 21.3 2.16 170
2024 06 14 12  20 27 59.997   -05 59 36.74  .56110 1.4638 134.3 21.3 2.23 170
2024 06 14 13  20 28 02.280   -05 59 44.02  .56092 1.4638 134.3 21.3 2.30 170